Time,TemperatureF,DewpointF,PressureIn,WindDirection,WindDirectionDegrees,WindSpeedMPH,WindSpeedGustMPH,Humidity,HourlyPrecipIn,Conditions,Clouds,dailyrainin,SoftwareType,DateUTC
2013-04-12 00:00:00,30.0,-99.9,-100.00,SSW,206,2.0,-999.0,-999,-99.99,,,-99.99,,2013-04-12 07:00:00,
2013-04-12 01:00:00,28.0,-99.9,-100.00,SW,224,2.0,-999.0,-999,-99.99,,,-99.99,,2013-04-12 08:00:00,
2013-04-12 02:00:00,27.0,-99.9,-100.00,SW,232,2.0,-999.0,-999,-99.99,,,-99.99,,2013-04-12 09:00:00,
2013-04-12 03:00:00,26.0,-99.9,-100.00,SW,226,2.0,-999.0,-999,-99.99,,,-99.99,,2013-04-12 10:00:00,
2013-04-12 04:00:00,25.0,-99.9,-100.00,SSW,213,2.0,-999.0,-999,-99.99,,,-99.99,,2013-04-12 11:00:00,
2013-04-12 05:00:00,24.0,-99.9,-100.00,SW,216,2.0,-999.0,-999,-99.99,,,-99.99,,2013-04-12 12:00:00,
2013-04-12 06:00:00,30.0,-99.9,-100.00,SSW,201,3.0,-999.0,-999,-99.99,,,-99.99,,2013-04-12 13:00:00,
2013-04-12 07:00:00,32.0,-99.9,-100.00,SSE,166,3.0,-999.0,-999,-99.99,,,-99.99,,2013-04-12 14:00:00,
2013-04-12 08:00:00,35.0,-99.9,-100.00,SSW,202,5.0,-999.0,-999,-99.99,,,-99.99,,2013-04-12 15:00:00,
2013-04-12 09:00:00,39.0,-99.9,-100.00,SW,219,6.0,-999.0,-999,-99.99,,,-99.99,,2013-04-12 16:00:00,
2013-04-12 10:00:00,44.0,-99.9,-100.00,ESE,117,3.0,-999.0,-999,-99.99,,,-99.99,,2013-04-12 17:00:00,
2013-04-12 11:00:00,51.0,-99.9,-100.00,SSW,208,7.0,-999.0,-999,-99.99,,,-99.99,,2013-04-12 18:00:00,
2013-04-12 12:00:00,56.0,-99.9,-100.00,SW,222,12.0,-999.0,-999,-99.99,,,-99.99,,2013-04-12 19:00:00,
2013-04-12 13:00:00,58.0,-99.9,-100.00,SW,218,12.0,-999.0,-999,-99.99,,,-99.99,,2013-04-12 20:00:00,
2013-04-12 14:00:00,59.0,-99.9,-100.00,SW,222,10.0,-999.0,-999,-99.99,,,-99.99,,2013-04-12 21:00:00,
2013-04-12 15:00:00,60.0,-99.9,-100.00,West,269,13.0,-999.0,-999,-99.99,,,-99.99,,2013-04-12 22:00:00,
2013-04-12 16:00:00,58.0,-99.9,-100.00,WSW,245,12.0,-999.0,-999,-99.99,,,-99.99,,2013-04-12 23:00:00,
2013-04-12 17:00:00,57.0,-99.9,-100.00,WSW,244,12.0,-999.0,-999,-99.99,,,-99.99,,2013-04-13 00:00:00,
2013-04-12 18:00:00,56.0,-99.9,-100.00,WSW,251,14.0,-999.0,-999,-99.99,,,-99.99,,2013-04-13 01:00:00,
2013-04-12 19:00:00,52.0,-99.9,-100.00,WSW,249,14.0,-999.0,-999,-99.99,,,-99.99,,2013-04-13 02:00:00,
2013-04-12 20:00:00,49.0,-99.9,-100.00,SW,236,14.0,-999.0,-999,-99.99,,,-99.99,,2013-04-13 03:00:00,
2013-04-12 21:00:00,47.0,-99.9,-100.00,SW,231,18.0,-999.0,-999,-99.99,,,-99.99,,2013-04-13 04:00:00,
2013-04-12 22:00:00,46.0,-99.9,-100.00,SW,226,21.0,-999.0,-999,-99.99,,,-99.99,,2013-04-13 05:00:00,
2013-04-12 23:00:00,46.0,-99.9,-100.00,SW,218,18.0,-999.0,-999,-99.99,,,-99.99,,2013-04-13 06:00:00,